Regional Weather Roundup
Issued by NWS State College, PA

Home | Current Version | Previous Version | Graphics & Text | Print | Product List | Glossary Off
Versions: 1 2 3 4 5 6 7 8 9 10 11 12 13 14 15 16 17 18 19 20 21 22 23 24 25 26 27 28 29 30 31 32 33 34 35 36 37 38 39 40 41 42 43 44 45 46 47 48 49 50

000
ASUS41 KCTP 250910
RWRCTP

REGIONAL WEATHER ROUNDUP
NATIONAL WEATHER SERVICE STATE COLLEGE PA
500 AM EDT SAT APR 25 2015

Note: "fair" indicates few or no clouds below 12,000 feet with no
significant weather and/or obstructions to visibility.

* = STATION THAT DOES NOT REPORT PRECIPITATION /E.G. RAIN...SNOW...ETC/
    THUNDER OR FOG.

PAZ002>004-007>009-013>016-020>023-029>032-251000-
WESTERN PENNSYLVANIA

CITY           SKY/WX    TMP DP  RH WIND       PRES   REMARKS
ERIE           CLOUDY    33  24  69 CALM      29.97F
MEADVILLE      CLOUDY    33  20  58 S3        29.94F
FRANKLIN*      CLOUDY    30  19  64 CALM      29.95F
NEW CASTLE     FAIR      35  29  79 CALM      29.99S
BEAVER COUNTY  NOT AVBL
BUTLER*        CLOUDY    34  25  69 W3        29.97F
PITTSBURGH INT CLOUDY    40  18  41 NE5       29.96S
PITTSBURGH     CLOUDY    38  15  39 VRB3      29.95S
INDIANA*       CLOUDY    32  23  69 E3        29.98F
LATROBE        CLOUDY    36  28  75 N6        29.97F
WASHINGTON CO* CLOUDY    39  18  41 CALM      29.98R
$$

PAZ004>006-010>012-017>019-024>028-033>037-041-042-045-046-049>053-251000-
CENTRAL PENNSYLVANIA

CITY           SKY/WX    TMP DP  RH WIND       PRES   REMARKS
BRADFORD       MOCLDY    25  20  81 CALM      29.91S
DUBOIS         MOCLDY    30  19  63 SW3       29.91F
CLEARFIELD     MOCLDY    29  19  66 CALM      29.94F
JOHNSTOWN      CLOUDY    34  10  37 CALM      29.91F
ALTOONA        MOCLDY    32  21  64 SW5       29.95S
STATE COLLEGE  MOCLDY    34  18  51 W3        29.94F
WILLIAMSPORT   CLEAR     32  21  64 NW5       29.96R
SELINSGROVE    PTCLDY    30  25  81 CALM      29.97S
FT INDIANTOWN  CLEAR     39  19  44 W5        29.96S
CAPITAL CITY   CLEAR     33  20  58 SW5       29.97S
HARRISBURG     CLEAR     35  23  61 N3        29.96F
YORK           CLEAR     27  22  81 CALM      29.97S
$$

PAZ038>040-043-044-047-048-054-055-060>062-067>071-251000-
EASTERN PENNSYLVANIA

CITY           SKY/WX    TMP DP  RH WIND       PRES   REMARKS
SCRANTON       CLEAR     33  22  63 SW7       29.92S
MOUNT POCONO   CLEAR     29  21  72 NW9       29.85S
ALLENTOWN      CLEAR     34  21  59 W6        29.94S
QUAKERTOWN*    SUNNY     28  23  80 W3        29.95R
READING        CLEAR     32  21  64 NW6       29.95S
LANCASTER      CLEAR     32  21  64 W3        29.96S
COATESVILLE    SUNNY     34  21  60 W3        29.96S
POTTSTOWN      CLEAR     32  23  69 NW3       29.96F
BLUE BELL      CLEAR     36  27  69 CALM      29.95R
DOYLESTOWN     CLEAR     32  21  64 CALM      29.94R
WILLOW GROVE   NOT AVBL
NORTH PHILA    CLEAR     37  20  50 W6        29.97S
PHILADELPHIA   PTCLDY    41  22  46 W8        29.98R
$$


USA.gov is the U.S. government's official web portal to all federal, state and local government web resources and services.